Overview Statistics Trail Chart Weather Telemetry Raw packets
 

This is the latest recevied weather packets stored in our database for station/object VE3EP-1. If no packets are shown the sender has not sent any weather packets the latest 10 day(s).

<< 6 7 8 9 10 11 12 >>
Time Temp. Humidity Pressure Rain* Wind** Luminosity Snow
1788369247 24.44° C 82% 1017 hPa 0 mm - - -
1788368646 23.89° C 84% 1016.7 hPa 0 mm - - -
1788368046 24.44° C 83% 1016.8 hPa 0 mm - - -
1788367447 23.89° C 84% 1017 hPa 0 mm - - -
1788366847 23.33° C 84% 1017.2 hPa 0 mm - - -
1788366247 23.89° C 83% 1017.3 hPa 0 mm - - -
1788365047 23.89° C 83% 1017.7 hPa 0 mm - - -
1788364447 23.89° C 81% 1017.5 hPa 0 mm - - -
1788363847 22.78° C 84% 1017.8 hPa 0 mm - - -
1788363252 23.33° C 84% 1017.6 hPa 0 mm - - -
1788362647 23.33° C 84% 1017.2 hPa 0 mm - - -
1788362046 23.33° C 83% 1017 hPa 0 mm - - -
1788361447 23.33° C 87% 1017.2 hPa 0 mm - - -
1788360847 22.22° C 89% 1016.8 hPa 0 mm - - -
1788358447 21.11° C 93% 1016.8 hPa 0 mm - - -
1788357247 20.56° C 97% 1016.3 hPa 0.51 mm - - -
1788356647 21.11° C 98% 1016.5 hPa 1.02 mm - - -
1788356047 21.11° C 99% 1017.1 hPa 1.52 mm - - -
1788355445 21.11° C 98% 1016.9 hPa 2.29 mm - - -
1788354847 21.11° C 98% 1017.5 hPa 3.56 mm - - -
1788353647 20.56° C 98% 1017.9 hPa 4.32 mm - - -
1788353047 20.56° C 98% 1017.8 hPa 4.06 mm - - -
1788352447 20.56° C 98% 1018.1 hPa 4.06 mm - - -
1788351847 20.56° C 98% 1018.2 hPa 3.56 mm - - -
1788350047 20.56° C 98% 1018.6 hPa 1.27 mm - - -

* Rain latest hour (hover to see other rain measurements)
** Current wind speed in m/s (hover to see current wind gust speed)